TIANZHOU-10

Last updated on Sun Jun 21 2026 00:02:11 GMT+0000 (Coordinated Universal Time)

1 69049U 26102A 26170.72834613 .00019835 00000+0 23343-3 0 9992 2 69049 41.4696 306.5363 0007349 99.2772 260.8898 15.60907257 6228
UTC large
Height (km)
Speed (km/s)
/
Latitude / Longitude
Inclination (degrees)
Orbital Period (minutes)
Azimuth
Elevation
Range (km)
Doppler Factor

Next 0 passes for location: London (51.5072 / 0.1276)

No passes found over London.
TIANZHOU-10